Location: Kharkelani
(42.1892°N, 44.5081°E)
Time: 12:16:19
(UTC+00:00)

Daily predictions for brighter satellites

Satellite Brightness Start Highest point End
(mag) Time Altitude Azimuth Time Altitude Azimuth Time Altitude Azimuth
NOSS 2-2 (E) 3.7 15:59:43 10° NNW 16:03:38 71° NE 16:09:05 10° SE
USA 234 3.4 15:57:12 10° NE 16:03:48 90° W 16:10:21 10° SW
Cosmos 1937 Rocket 4.4 15:59:40 10° SSE 16:04:07 28° E 16:08:36 10° NE
NOAA 6 4.2 15:59:01 10° S 16:04:08 79° WSW 16:09:15 10° NNW
Cosmos 2227 4.4 15:58:47 10° NNW 16:04:34 85° WSW 16:10:19 10° SSE
Tiangong -1.1 16:07:05 10° W 16:10:01 36° SSW 16:12:56 10° SE
COSMOS 2428 4.3 16:08:55 10° SE 16:11:33 13° E 16:14:12 10° ENE
Meteor 1-15 Rocket 4.4 16:07:49 10° SSE 16:13:09 49° E 16:18:29 10° NNE
Meteor 1-31 Rocket 3.6 16:13:43 10° SE 16:16:44 28° ENE 16:19:47 10° N
CSL-04 Rocket 4.1 16:12:09 10° SE 16:17:23 47° ENE 16:22:41 10° N
Cosmos 2278 Rocket 4.4 16:19:45 10° NE 16:20:15 10° NE 16:20:45 10° NE
Cosmos 2333 Rocket 3.0 16:16:37 10° SW 16:22:12 58° WNW 16:27:48 10° NNE
NOSS 3-2 (A) 4.2 16:15:18 10° NNW 16:22:43 67° NE 16:31:34 10° SE
Exosat Rocket 4.4 16:19:13 10° NNW 16:24:51 53° ENE 16:32:32 10° SE
COBE Rocket 4.1 16:22:45 10° N 16:27:43 83° WNW 16:32:46 10° SSW
Cosmos 2181 Rocket 4.0 16:23:20 10° N 16:29:29 88° W 16:35:38 10° S
Cosmos 1953 2.0 16:26:00 10° S 16:29:34 89° E 16:33:11 10° N
Cosmos 1295 Rocket 4.5 16:26:31 10° S 16:32:41 86° E 16:38:58 10° N
Meteor 2-5 Rocket 3.7 16:30:03 10° N 16:35:34 68° ENE 16:41:06 10° SSE
Nadezhda 3 Rocket 4.1 16:30:25 10° N 16:36:29 57° E 16:42:30 10° SSE
Geosat 4.1 16:32:23 10° NE 16:37:18 54° ESE 16:42:10 10° S
Cosmos 1470 Rocket 3.5 16:37:07 10° S 16:41:29 71° E 16:45:51 10° NNE
Cosmos 1703 Rocket 4.1 16:37:31 10° N 16:41:33 38° ENE 16:44:37 16° SE
ERS-1 Rocket 3.6 16:38:04 14° SE 16:41:57 37° ENE 16:46:31 10° N
SJ-6B 4.0 16:39:50 10° S 16:43:18 40° W 16:46:48 10° NNW
ARIANE 6 FM1 Upper Stage 3.3 16:41:55 10° SW 16:46:01 59° NW 16:50:03 10° NNE
ATLAS 3B R/B 4.1 16:39:14 10° WSW 16:46:34 48° NW 16:54:11 10° NNE
Iridium 82 3.9 16:43:43 10° N 16:46:45 82° E 16:49:42 10° S
Cosmos 1943 Rocket 3.9 16:43:20 10° N 16:47:11 18° NE 16:49:58 13° E
Cosmos 2154 Rocket 4.0 16:41:02 10° S 16:47:19 85° E 16:53:41 10° N
Cosmos 1933 Rocket 4.1 16:45:02 10° SSE 16:49:00 36° E 16:53:01 10° NNE
Lacrosse 5 rocket 0.6 16:47:10 10° SW 16:50:21 63° SE 16:53:29 10° NE
Okean 1-7 3.9 16:48:24 10° NNW 16:52:22 47° W 16:56:17 10° SSW
Cosmos 1844 Rocket 4.5 16:56:17 10° NW 17:01:03 30° WSW 17:05:47 10° SSW
Cosmos 2360 Rocket 3.4 16:56:15 10° SW 17:01:37 46° WNW 17:07:03 10° NNE
Cosmos 1441 Rocket 4.4 16:59:50 10° NNW 17:02:58 36° W 17:06:04 10° SSW
Meteor 2-19 Rocket 4.5 16:57:16 10° N 17:03:24 64° E 17:08:30 15° SSE
Meteor 1-16 Rocket 4.3 16:59:27 10° S 17:05:22 87° E 17:11:18 10° N
Okean-O 3.7 17:05:56 24° E 17:06:48 26° ENE 17:10:25 10° NNE
CBERS 1 LM4 rocket 4.3 17:03:44 21° SSE 17:06:51 64° ENE 17:11:30 10° N
Helios 1A Rocket 2.8 17:04:08 10° N 17:07:20 59° WNW 17:10:29 10° SSW
Cosmos 2228 Rocket 4.0 17:03:01 10° NNW 17:07:21 49° W 17:11:37 10° SSW
Cosmos 2322 Rocket 3.8 17:04:27 10° SW 17:09:36 37° WNW 17:14:47 10° N
BREEZE-M DEB (TANK) 3.3 17:08:37 10° WNW 17:11:20 71° SSW 17:15:16 25° ESE
Feng Yun 1-1 Rocket 4.2 17:08:58 14° SSE 17:13:57 89° ENE 17:19:29 10° NNW
ADEOS 3.6 17:11:21 24° SSE 17:14:27 64° ENE 17:19:36 10° N
BlueWalker 3 4.2 17:15:15 10° W 17:17:31 16° SW 17:19:29 11° SSW
MOS 1 4.2 17:13:20 18° SSE 17:17:40 84° ENE 17:23:21 10° NNW
Cosmos 1869 Rocket 3.6 17:16:58 29° SSE 17:18:55 54° E 17:23:12 10° NNE
Terra 1.7 17:17:03 28° SSE 17:19:31 73° ENE 17:24:12 10° N
Cosmos 2341 Rocket 4.1 17:17:11 18° SSE 17:21:44 53° E 17:27:48 10° NNE
Cosmos 2237 Rocket 3.8 17:24:08 17° ENE 17:24:08 17° ENE 17:26:03 10° NE
Atlas Centaur 2 4.4 17:19:05 10° SW 17:22:34 15° SSW 17:25:12 13° S
Cosmos 2322 3.6 17:19:40 10° S 17:25:17 65° ESE 17:30:58 10° NNE
CZ-4 R/B 2.4 17:25:09 13° SSW 17:28:12 40° W 17:31:48 10° NNW
IRS-1A Rocket 4.2 17:26:31 32° SE 17:29:07 68° ENE 17:34:42 10° N
Okean O Rocket 1.9 17:29:29 44° E 17:30:00 46° ENE 17:34:11 10° N
ASTEX 1 4.3 17:32:11 29° ENE 17:32:11 29° ENE 17:36:16 10° NNE
SL-08 R/B 3.2 17:27:23 10° NNE 17:32:17 80° ESE 17:36:20 15° S
Meteor 1-21 Rocket 4.4 17:29:26 10° N 17:34:54 51° ENE 17:36:17 41° ESE
Cosmos 2219 Rocket 3.6 17:33:03 10° SW 17:38:13 38° WNW 17:43:25 10° N
Cosmos 1680 Rocket 3.4 17:35:15 10° NNW 17:40:29 88° ENE 17:42:08 45° SSE
CZ-4B R/B 4.5 17:42:10 20° NE 17:42:10 20° NE 17:43:50 10° NNE
SPOT 3 Rocket 4.4 17:41:05 32° ENE 17:41:22 33° ENE 17:45:57 10° N
SL-8 Rocket 3.9 17:44:34 17° S 17:49:34 90° ESE 17:55:53 10° N
BREEZE-M DEB (TANK) 4.3 17:48:21 10° NW 17:50:01 19° N 17:50:01 19° N
NOSS 2-3 (E) 4.3 17:48:22 10° NW 17:53:43 84° ENE 17:55:36 49° SE
NOSS 0 Rocket 3.8 17:49:30 21° S 17:53:47 65° ESE 17:59:58 10° NNE
SL-24 R/B - RUBIN 2 3.4 17:49:46 10° NNW 17:54:14 86° ENE 17:54:30 79° SE
COSMOS 2428 2.7 17:49:13 10° SSW 17:54:56 84° WNW 18:00:43 10° NNE
CZ-4B R/B 3.8 17:53:16 25° SSW 17:56:24 54° W 18:01:53 10° NNW
NOSS 2-3 (C) 4.4 17:51:36 10° NNW 17:56:51 69° NE 17:58:25 51° ESE
Cosmos 2112 Rocket 3.9 17:52:47 10° NNW 17:58:00 79° WSW 17:59:00 58° S
Cosmos 1727 Rocket 4.4 17:52:37 10° N 17:58:39 43° ENE 17:59:04 43° E
Cosmos 2366 rocket 3.9 17:55:28 23° S 17:59:32 84° W 18:05:43 10° N
Cosmos 1241 Rocket 4.4 17:53:38 10° NNW 17:59:55 73° ENE 18:01:17 55° ESE
USA 245 4.4 18:04:11 37° NNE 18:04:11 37° NNE 18:07:16 10° N
NOSS 3-2 (C) 4.2 17:57:43 10° NW 18:05:19 74° WSW 18:08:57 39° SSE
Cosmos 2278 Rocket 2.4 18:00:07 10° NNW 18:05:41 53° ENE 18:05:59 53° ENE
Ariane Rocket 3.7 18:06:44 40° NE 18:06:44 40° NE 18:10:52 10° N
USA 32 4.0 18:13:32 64° SSW 18:14:19 78° W 18:19:34 10° N
Spot 2 Rocket 3.7 18:13:51 56° SW 18:14:35 63° WSW 18:19:35 10° NNW
NOSS 2-3 (D) 4.4 18:10:42 10° NW 18:16:05 74° SW 18:17:13 60° S
Cosmos 2218 Rocket 4.4 18:21:24 26° SSW 18:24:54 58° W 18:30:58 10° N
Lacrosse 5 rocket 3.6 18:25:08 10° WNW 18:27:15 16° NNW 18:27:17 16° NNW
Meteor 2-15 Rocket 4.3 18:29:48 70° SSW 18:30:32 83° W 18:36:40 10° N
Cosmos 1943 Rocket 2.1 18:25:54 10° NNW 18:31:28 79° W 18:31:28 79° W
USA 59 Rocket 2.3 18:31:04 10° N 18:31:45 14° N 18:31:45 14° N
NOSS 3-4 (A) 4.0 18:35:57 39° NE 18:35:57 39° NE 18:39:32 10° NE
NOSS 3-4 (C) 4.0 18:36:30 39° NE 18:36:30 39° NE 18:40:03 10° NE
Meteor 1-11 4.2 18:29:01 10° NNW 18:34:17 78° NW 18:34:17 78° NW
IRS-1C Rocket 4.3 18:40:00 65° N 18:40:00 65° N 18:44:29 10° NNW
SeaSat 1 3.9 18:40:17 28° NNE 18:40:17 28° NNE 18:43:31 10° N
Cosmos 1821 Rocket 4.3 18:37:50 47° SW 18:39:28 63° W 18:45:44 10° N
CZ-4B R/B 3.9 18:40:30 56° NNW 18:40:30 56° NNW 18:44:22 10° NNW
Cosmos 1733 Rocket 4.3 18:41:28 38° NW 18:41:28 38° NW 18:44:35 10° N
Okean-O 4.2 18:43:16 29° W 18:43:16 29° W 18:46:48 10° NW
Cosmos 2239 Rocket 4.4 18:44:54 79° NNE 18:44:54 79° NNE 18:50:42 10° N
Timation 2 Rocket 4.0 18:45:17 10° NNW 18:51:22 79° W 18:51:22 79° W
Cosmos 2237 Rocket 2.8 19:05:49 53° NW 19:05:49 53° NW 19:11:01 10° NNE
Cosmos 1980 4.4 19:06:16 50° WNW 19:06:16 50° WNW 19:11:46 10° NNE
Okean O Rocket 4.1 19:06:43 16° W 19:06:43 16° W 19:09:08 10° NW
Cosmos 2369 Rocket 3.7 19:36:01 10° NNW 19:39:12 30° N 19:39:12 30° N
USA 238 DEB 4.4 19:38:30 10° NW 19:44:50 53° W 19:44:50 53° W
USA 238 4.4 19:38:40 10° NW 19:45:00 54° W 19:45:00 54° W
Cosmos 2278 Rocket 4.2 19:45:03 10° NW 19:47:49 20° W 19:47:49 20° W
SL-16 R/B 4.0 20:16:16 28° N 20:16:16 28° N 20:18:58 10° NNE
NOSS 3-1 (C) 4.4 20:35:58 10° NNW 20:41:26 56° NNW 20:41:26 56° NNW
COSMOS 2455 4.4 20:58:49 10° NNW 21:02:10 30° N 21:02:10 30° N
NOSS 3-1 (A) 4.4 21:27:00 10° NNW 21:32:39 58° N 21:32:39 58° N
ACS3 Solar Sail 3.0 21:53:08 10° NNE 21:56:52 36° NE 21:56:52 36° NE
USA 267 3.7 22:10:23 10° NE 22:15:28 57° NE 22:15:28 57° NE
ATLAS 2AS CENTAUR R/B 3.2 22:32:27 54° ENE 22:32:27 54° ENE 22:37:55 10° NE
IDEFIX/ARIANE 42P 3.9 22:34:15 10° NNE 22:37:18 36° NNE 22:37:18 36° NNE
USA 281 3.7 22:41:15 53° NNW 22:41:15 53° NNW 22:46:08 10° NNW
Resurs 1-4 Rocket 4.1 22:38:17 10° NE 22:42:07 20° E 22:42:07 20° E
Cosmos 1833 Rocket 3.7 22:44:45 43° NNE 22:44:45 43° NNE 22:48:28 10° NNE
Cosmos 1464 Rocket 4.5 22:44:57 55° N 22:44:57 55° N 22:49:37 10° N
USA 234 3.4 22:45:43 10° ESE 22:52:11 69° NE 22:58:41 10° NW
Nadezhda 4 Rocket 4.5 22:49:09 10° N 22:53:47 53° NNW 22:53:47 53° NNW
Cosmos 2034 Rocket 4.2 22:58:19 69° NE 22:58:19 69° NE 23:03:55 10° N
FENGYUN 3A 4.3 22:57:24 10° NNE 23:01:32 53° NNE 23:01:32 53° NNE
NPP 4.2 23:10:05 10° N 23:14:15 54° N 23:14:15 54° N
CZ-2D R/B 3.0 23:17:51 10° NNE 23:22:46 40° E 23:23:08 40° ESE
Cosmos 1697 Rocket 3.8 23:21:50 10° NNW 23:24:53 33° NW 23:24:53 33° NW
Cosmos 1092 Rocket 3.8 23:21:43 10° N 23:27:55 83° E 23:28:16 79° SE
Cosmos 2026 Rocket 3.8 23:22:57 10° N 23:29:02 82° WNW 23:29:02 82° WNW
BREEZE-M DEB (TANK) 4.2 23:31:11 25° NNE 23:31:11 25° NNE 23:35:25 10° ENE
Cosmos 1867 3.6 23:37:22 78° NNE 23:37:22 78° NNE 23:42:30 10° NNE
Meteor 1-26 Rocket 4.1 23:39:28 74° ESE 23:39:40 75° E 23:45:02 10° NNE
ACS3 Solar Sail 3.1 23:36:13 10° NNW 23:40:25 25° NW 23:40:25 25° NW
Cosmos 1980 Rocket 2.3 23:37:24 10° NNW 23:43:08 74° ENE 23:45:54 32° SE
Cosmos 1302 Rocket 4.1 23:43:46 63° NNW 23:43:46 63° NNW 23:48:23 10° NNE
BREEZE-M DEB (TANK) 4.2 23:55:32 41° WNW 23:56:31 45° NW 23:59:36 10° NE
